This is the latest recevied weather packets stored in our database for station/object K5NWZ. If no packets are shown the sender has not sent any weather packets the latest 10 day(s).
| Time | Temp. | Humidity | Pressure | Rain* | Wind** | Luminosity | Snow |
|---|---|---|---|---|---|---|---|
| 1787656674 | 16.67° C | 74% | 1033 hPa | 0 mm | - | 0 W/m² | - |
| 1787656369 | 16.67° C | 73% | 1033.1 hPa | 0 mm | - | 0 W/m² | - |
| 1787656064 | 16.67° C | 71% | 1033.2 hPa | 0 mm | - | 0 W/m² | - |
| 1787655762 | 17.22° C | 71% | 1032.9 hPa | 0 mm | - | 0 W/m² | - |
| 1787655460 | 17.22° C | 70% | 1033 hPa | 0 mm | - | 0 W/m² | - |
| 1787655159 | 17.22° C | 69% | 1033 hPa | 0 mm | - | 0 W/m² | - |
| 1787654855 | 17.22° C | 70% | 1033 hPa | 0 mm | - | 0 W/m² | - |
| 1787654551 | 17.78° C | 68% | 1033.2 hPa | 0 mm | - | 0 W/m² | - |
| 1787654251 | 17.78° C | 65% | 1033.1 hPa | 0 mm | - | 0 W/m² | - |
| 1787653946 | 17.78° C | 64% | 1033.1 hPa | 0 mm | - | 0 W/m² | - |
| 1787653641 | 17.78° C | 66% | 1032.7 hPa | 0 mm | - | 0 W/m² | - |
| 1787653337 | 17.78° C | 64% | 1032.7 hPa | 0 mm | - | 0 W/m² | - |
| 1787653033 | 17.78° C | 62% | 1033 hPa | 0 mm | - | 0 W/m² | - |
| 1787652727 | 17.78° C | 62% | 1032.9 hPa | 0 mm | - | 0 W/m² | - |
| 1787652422 | 17.22° C | 64% | 1032.9 hPa | 0 mm | - | 0 W/m² | - |
| 1787652117 | 17.78° C | 62% | 1033 hPa | 0 mm | - | 0 W/m² | - |
| 1787651815 | 17.78° C | 62% | 1032.7 hPa | 0 mm | - | 0 W/m² | - |
| 1787651510 | 17.78° C | 62% | 1032.9 hPa | 0 mm | - | 0 W/m² | - |
| 1787651209 | 18.33° C | 60% | 1032.9 hPa | 0 mm | - | 0 W/m² | - |
| 1787650908 | 18.89° C | 59% | 1032.7 hPa | 0 mm | - | 0 W/m² | - |
| 1787650603 | 18.89° C | 59% | 1032.7 hPa | 0 mm | - | 0 W/m² | - |
| 1787650298 | 18.33° C | 60% | 1032.7 hPa | 0 mm | - | 0 W/m² | - |
| 1787649993 | 18.33° C | 61% | 1032.7 hPa | 0 mm | - | 0 W/m² | - |
| 1787649688 | 18.89° C | 60% | 1032.5 hPa | 0 mm | - | 0 W/m² | - |
| 1787649383 | 18.89° C | 59% | 1032.9 hPa | 0 mm | - | 0 W/m² | - |
* Rain latest hour (hover to see other rain measurements)
** Current wind speed in m/s (hover to see current wind gust speed)